Location: Altmatt
(47.1333°N, 8.7000°E)
Time: 18:00:34
(UTC+00:00)

COSMOS 2455 - Pass Details

Date: 13 July 2020
Orbit: 898 x 911 km, 67.1° (Epoch: 13 August)

Event Time Altitude Azimuth Distance (km) Brightness Sun altitude
Rises 20:26:55 0° 328° (NNW) 3,551 7.9 -9.7°
Reaches altitude 10° 20:29:41 10° 338° (NNW) 2,608 6.5 -10.0°
Maximum altitude 20:35:11 35° 43° (NE) 1,442 4.0 -10.6°
Drops below altitude 10° 20:40:39 10° 108° (ESE) 2,597 4.7 -11.2°
Enters shadow 20:40:48 - 109° (ESE) 2,641 4.8 -11.2°
